date,time,DOY,Ta_1_1_1,Pa_1_1_1,RH_1_1_1,LWin_1_1_1,LWout_1_1_1,SWin_1_1_1,SWout_1_1_1,PPFD_1_1_1,MWS_1_1_1,WD_1_1_1,SWC_1_1_1,Ts_1_1_1
[yyyy-mm-dd],[HH:MM],[ddd.ddd],[K],[Pa],[%],[W+1m-2],[W+1m-2],[W+1m-2],[W+1m-2],[µmol+1m-2s-1],[m+1s-1],[deg],[m+3m-3],[K]
2018-06-05,00:30,156.020,289.69499999999999,94307.466666666660,43.414666666666662,400.17433333333332,324.66166666666669,41.931666666666665,175.48666666666668,346.97233333333327,7.0633333333333326,310.52199999999999,0.33999999999999991,285.16933333333333
2018-06-05,01:00,156.041,288.01700000000005,94347.100000000006,42.072666666666670,389.76733333333334,312.13300000000004,28.850333333333346,101.44399999999997,197.89699999999999,7.1100000000000003,319.87833333333333,0.33033333333333342,285.12799999999999
2018-06-05,01:30,156.062,286.36000000000001,94374.000000000000,46.270333333333312,379.58233333333339,303.45299999999992,14.013333333333332,37.510333333333342,75.153999999999996,5.9399999999999995,299.54466666666667,0.33000000000000002,285.05666666666673
2018-06-05,02:00,156.083,285.27366666666671,94378.266666666663,49.874666666666670,372.37033333333329,299.02133333333330,2.8329999999999989,0.69999999999999973,12.583999999999994,4.3433333333333319,318.93333333333334,0.33000000000000002,284.96566666666666
2018-06-05,02:30,156.104,284.46000000000004,94388.000000000000,53.207666666666668,367.22033333333337,296.03866666666664,1.1893333333333336,-4.5243333333333329,0.44066666666666671,3.8966666666666665,335.85499999999996,0.33000000000000002,284.87100000000004
2018-06-05,03:00,156.124,283.87233333333342,94406.433333333334,55.591000000000015,364.28700000000003,293.33266666666663,1.1023333333333334,-4.6219999999999999,1.20000000000000037E-002,4.0099999999999998,341.65499999999997,0.33000000000000002,284.76666666666665
2018-06-05,03:30,156.145,283.32766666666669,94409.899999999994,57.887666666666661,360.18933333333337,291.29933333333332,1.3043333333333331,-4.6703333333333337,6.66666666666667295E-004,3.1366666666666672,333.05599999999998,0.33000000000000002,284.66133333333335
2018-06-05,04:00,156.166,282.88266666666664,94409.866666666669,59.335999999999999,357.14633333333330,289.93166666666667,1.4239999999999999,-4.4186666666666659,5.66666666666666707E-003,3.3033333333333332,332.27766666666668,0.33000000000000002,284.55766666666665
2018-06-05,04:30,156.187,282.50466666666671,94418.899999999994,61.028333333333350,356.18500000000012,288.86966666666666,1.1966666666666668,-4.3176666666666677,-3.66666666666666703E-003,3.8266666666666671,328.96666666666664,0.33000000000000002,284.45633333333330
2018-06-05,05:00,156.208,281.77000000000004,94424.800000000003,65.052000000000021,353.20666666666671,287.11533333333330,1.0983333333333334,-4.4806666666666679,-6.00000000000000012E-003,3.3500000000000001,339.05533333333335,0.33000000000000002,284.34966666666668
2018-06-05,05:30,156.229,280.96333333333331,94420.000000000000,69.708333333333329,348.73933333333321,284.70733333333334,1.2900000000000003,-4.4396666666666667,-2.00000000000000004E-003,2.4766666666666666,324.22199999999998,0.33000000000000002,284.24700000000001
2018-06-05,06:00,156.249,280.35333333333335,94415.466666666660,73.363666666666674,346.99766666666670,282.76166666666666,1.1283333333333330,-4.2146666666666670,7.00000000000000275E-003,3.5200000000000000,180.58933333333334,0.33000000000000002,284.14999999999998
2018-06-05,06:30,156.270,279.56666666666672,94430.199999999997,80.464333333333329,343.51466666666670,281.43666666666667,1.3403333333333334,-4.2103333333333337,-6.00000000000000012E-003,2.3866666666666663,54.799333333333315,0.33000000000000002,284.05133333333339
2018-06-05,07:00,156.291,279.46433333333329,94438.033333333340,83.623000000000019,341.48099999999999,280.80900000000003,1.6613333333333336,-4.0056666666666665,-3.66666666666666703E-003,2.0066666666666668,53.022333333333329,0.33000000000000002,283.95733333333334
2018-06-05,07:30,156.312,279.16433333333327,94442.366666666669,84.660666666666657,342.66066666666666,312.53600000000000,1.1539999999999999,-1.9416666666666669,2.00000000000000004E-003,2.4733333333333336,43.544999999999995,0.33000000000000002,283.85300000000001
2018-06-05,08:00,156.333,279.04000000000008,94449.100000000006,84.630333333333354,344.96166666666682,336.48400000000004,0.38866666666666666,-0.41966666666666674,-7.00000000000000015E-003,2.9933333333333332,58.222666666666669,0.33000000000000002,283.75766666666664
2018-06-05,08:30,156.354,279.01700000000011,94478.566666666666,85.049666666666681,345.11733333333336,338.48400000000009,0.35399999999999998,-0.28066666666666673,1.30000000000000046E-002,3.4233333333333338,73.944666666666663,0.33000000000000002,283.66300000000007
2018-06-05,09:00,156.374,279.07233333333352,94501.199999999997,84.406333333333350,344.91433333333333,331.99633333333333,0.42266666666666663,-0.68633333333333335,7.33333333333333233E-003,2.5966666666666671,278.74399999999997,0.33000000000000002,283.58899999999994
2018-06-05,09:30,156.395,279.06333333333345,94517.333333333328,84.641333333333307,344.40666666666652,327.62866666666667,0.65933333333333310,-0.86699999999999977,2.20000000000000022E-002,1.3700000000000001,248.58799999999999,0.33000000000000002,283.51500000000004
2018-06-05,10:00,156.416,279.06766666666687,94543.133333333331,84.696666666666658,342.73766666666671,303.73466666666656,1.0736666666666670,-1.8236666666666670,1.1506666666666665,1.4566666666666666,208.97733333333332,0.33000000000000002,283.44833333333332
2018-06-05,10:30,156.437,278.78800000000007,94555.666666666672,86.497333333333330,339.03066666666660,278.86999999999995,3.5343333333333335,6.7660000000000000,20.443333333333332,1.1266666666666667,306.84433333333334,0.33000000000000002,283.38833333333338
2018-06-05,11:00,156.458,278.89533333333344,94585.199999999997,85.453333333333333,340.30933333333331,279.53033333333332,15.001666666666669,63.381000000000000,101.25500000000001,1.9666666666666663,276.38866666666667,0.33000000000000002,283.30900000000008
2018-06-05,11:30,156.479,279.09566666666666,94612.800000000003,85.259666666666675,344.05333333333334,281.89466666666664,26.463666666666668,135.27133333333333,221.24633333333335,2.1999999999999997,279.08933333333334,0.33000000000000002,283.24166666666667
2018-06-05,12:00,156.499,278.96799999999990,94626.466666666660,85.566666666666663,345.41033333333331,309.76599999999996,16.315666666666665,100.95333333333332,201.78266666666661,2.4299999999999997,318.35566666666665,0.33000000000000002,283.17966666666666
2018-06-05,12:30,156.520,278.88966666666659,94630.333333333328,85.016666666666666,346.85833333333341,328.83100000000007,26.376999999999999,149.76533333333336,285.42233333333331,3.8733333333333340,295.10033333333337,0.33000000000000002,283.12933333333336
2018-06-05,13:00,156.541,279.20933333333335,94633.100000000006,83.647666666666680,350.57899999999995,331.12700000000012,43.283999999999985,246.50066666666663,470.40933333333328,2.8999999999999999,229.89933333333332,0.33000000000000002,283.08833333333337
2018-06-05,13:30,156.562,280.01266666666675,94639.199999999997,79.766333333333336,357.03100000000006,302.84633333333323,77.551666666666662,451.39399999999989,846.71533333333321,2.5166666666666666,288.05500000000001,0.33000000000000002,283.05533333333341
2018-06-05,14:00,156.583,281.04066666666660,94655.966666666660,75.548999999999992,363.80733333333330,299.04566666666665,96.378666666666675,578.80966666666666,1101.1706666666671,2.9633333333333329,305.63466666666670,0.33000000000000002,283.04100000000005
2018-06-05,14:30,156.604,282.13366666666661,94671.100000000006,70.946666666666673,371.43266666666671,304.66166666666669,111.83900000000000,672.08433333333346,1285.0186666666664,3.0133333333333341,272.63299999999998,0.33000000000000002,283.04633333333339
2018-06-05,15:00,156.624,283.07800000000009,94685.766666666663,63.388666666666659,377.37200000000007,308.53333333333342,122.66033333333333,743.35333333333335,1439.9233333333334,3.1466666666666669,267.55500000000001,0.33000000000000002,283.06833333333333
2018-06-05,15:30,156.645,284.07066666666668,94676.000000000000,55.072333333333333,382.77600000000001,311.63166666666655,133.26133333333331,812.71433333333323,1586.6943333333329,3.9166666666666661,289.39999999999998,0.33000000000000002,283.09833333333336
2018-06-05,16:00,156.666,284.63566666666679,94687.533333333340,51.362333333333325,386.30800000000005,315.00999999999999,141.35266666666664,867.68733333333341,1708.9859999999999,4.3733333333333331,271.14466666666669,0.33000000000000002,283.13533333333334
2018-06-05,16:30,156.687,285.46566666666672,94672.066666666666,47.879333333333328,392.11600000000010,319.20100000000002,148.84333333333331,913.53066666666689,1813.3309999999997,4.3266666666666671,300.33366666666666,0.33000000000000002,283.18599999999992
2018-06-05,17:00,156.708,286.08299999999997,94672.899999999994,43.341333333333331,394.44866666666661,321.67366666666669,149.58633333333333,916.79399999999998,1826.9583333333335,5.1266666666666678,295.03300000000002,0.33000000000000002,283.26633333333336
2018-06-05,17:30,156.729,286.57366666666672,94673.800000000003,43.214666666666673,397.74033333333324,323.95333333333343,151.28800000000001,932.40200000000016,1876.7423333333331,5.0066666666666650,308.72233333333332,0.33000000000000002,283.34133333333335
2018-06-05,18:00,156.749,287.20533333333339,94646.733333333337,39.611333333333341,401.55333333333328,326.31366666666673,160.38700000000000,983.86500000000001,1974.1436666666666,5.6933333333333325,177.76700000000000,0.33000000000000002,283.43366666666662
2018-06-05,18:30,156.770,287.45400000000001,94641.666666666672,38.479000000000013,402.81933333333342,327.73133333333334,155.04266666666666,949.87866666666685,1914.7883333333336,5.3866666666666667,281.22233333333332,0.33000000000000002,283.53066666666672
2018-06-05,19:00,156.791,287.92133333333334,94642.766666666663,34.400666666666659,405.92133333333334,328.11900000000003,161.26366666666664,969.04399999999976,1953.3450000000000,5.0200000000000005,199.55600000000001,0.33000000000000002,283.65033333333326
2018-06-05,19:30,156.812,288.25433333333342,94651.466666666660,34.138333333333335,407.26700000000005,329.39566666666667,158.50033333333337,939.84633333333329,1901.6303333333337,5.1433333333333335,283.96699999999998,0.32366666666666682,283.80066666666676
2018-06-05,20:00,156.833,288.68266666666665,94643.666666666672,33.730333333333334,408.92833333333328,330.85500000000008,152.41666666666666,895.17599999999982,1817.9753333333333,4.8033333333333337,262.78833333333330,0.32000000000000012,283.92666666666662
2018-06-05,20:30,156.854,288.85433333333339,94650.133333333331,34.534666666666674,409.35000000000008,331.24833333333333,146.54133333333331,842.18566666666675,1712.4190000000006,5.1966666666666672,267.13433333333336,0.32000000000000012,284.03000000000003
2018-06-05,21:00,156.874,288.95100000000008,94647.633333333331,39.193666666666680,408.70566666666656,332.53333333333336,138.51466666666664,778.47533333333342,1588.0650000000001,5.1800000000000006,197.91033333333331,0.32000000000000012,284.12166666666667
2018-06-05,21:30,156.895,289.14200000000005,94634.233333333337,41.071333333333335,408.93433333333343,333.01066666666651,127.84333333333338,705.92999999999984,1444.3026666666672,4.4366666666666665,195.37666666666664,0.32000000000000012,284.18566666666663
2018-06-05,22:00,156.916,289.28433333333339,94645.566666666666,41.315333333333335,408.83700000000005,332.55333333333340,115.81966666666663,626.80899999999986,1286.0326666666663,3.2666666666666657,209.81166666666667,0.32000000000000012,284.23766666666671
2018-06-05,22:30,156.937,289.35499999999996,94631.366666666669,41.723666666666666,404.68833333333333,329.36166666666668,76.699666666666658,409.31499999999994,846.60533333333353,3.2133333333333325,204.67800000000000,0.32000000000000012,284.28300000000002
2018-06-05,23:00,156.958,289.39366666666672,94645.633333333331,42.303666666666672,405.65033333333332,339.68566666666663,90.741666666666703,460.52933333333328,938.34800000000007,2.1333333333333333,304.50000000000000,0.32000000000000012,284.32433333333336
2018-06-05,23:30,156.979,289.78166666666669,94651.899999999994,41.480333333333341,407.73199999999991,337.28766666666667,84.741999999999976,412.56500000000011,831.37600000000009,2.5666666666666669,81.355666666666664,0.32000000000000012,284.35866666666664
2018-06-06,00:00,157.000,289.89300000000003,94650.333333333328,41.907333333333327,403.68900000000008,331.14833333333337,49.575000000000010,234.82600000000005,483.80833333333328,1.7499999999999998,238.50066666666669,0.32000000000000012,284.39033333333339
